Year,Month,Day,Hour,Minute,Value (Times are PST for temperature in C)
2014,07,16,00,00,15.90
2014,07,16,00,01,15.80
2014,07,16,00,02,15.80
2014,07,16,00,03,15.80
2014,07,16,00,04,15.70
2014,07,16,00,05,15.70
2014,07,16,00,06,15.60
2014,07,16,00,07,15.60
2014,07,16,00,08,15.60
2014,07,16,00,09,15.60
2014,07,16,00,10,15.50
2014,07,16,00,11,15.50
2014,07,16,00,12,15.40
2014,07,16,00,13,15.40
2014,07,16,00,14,15.40
2014,07,16,00,15,15.30
2014,07,16,00,16,15.30
2014,07,16,00,17,15.30
2014,07,16,00,18,15.20
2014,07,16,00,19,15.20
2014,07,16,00,20,15.20
2014,07,16,00,21,15.10
2014,07,16,00,22,15.10
2014,07,16,00,23,15.10
2014,07,16,00,24,15.10
2014,07,16,00,25,15.00
2014,07,16,00,26,15.00
2014,07,16,00,27,15.00
2014,07,16,00,28,14.90
2014,07,16,00,29,14.90
2014,07,16,00,30,14.90
2014,07,16,00,31,14.80
2014,07,16,00,32,14.80
2014,07,16,00,33,14.80
2014,07,16,00,34,14.80
2014,07,16,00,35,14.70
2014,07,16,00,36,14.70
2014,07,16,00,37,14.70
2014,07,16,00,38,14.70
2014,07,16,00,39,14.70
2014,07,16,00,40,14.60
2014,07,16,00,41,14.60
2014,07,16,00,42,14.60
2014,07,16,00,43,14.60
2014,07,16,00,44,14.50
2014,07,16,00,45,14.50
2014,07,16,00,46,14.50
2014,07,16,00,47,14.50
2014,07,16,00,48,14.40
2014,07,16,00,49,14.40
2014,07,16,00,50,14.40
2014,07,16,00,51,14.40
2014,07,16,00,52,14.40
2014,07,16,00,53,14.40
2014,07,16,00,54,14.40
2014,07,16,00,55,14.30
2014,07,16,00,56,14.30
2014,07,16,00,57,14.30
2014,07,16,00,58,14.30
2014,07,16,00,59,14.30
2014,07,16,01,00,14.30
2014,07,16,01,01,14.30
2014,07,16,01,02,14.30
2014,07,16,01,03,14.30
2014,07,16,01,04,14.20
2014,07,16,01,05,14.20
2014,07,16,01,06,14.20
2014,07,16,01,07,14.20
2014,07,16,01,08,14.20
2014,07,16,01,09,14.20
2014,07,16,01,10,14.20
2014,07,16,01,11,14.20
2014,07,16,01,12,14.20
2014,07,16,01,13,14.20
2014,07,16,01,14,14.20
2014,07,16,01,15,14.20
2014,07,16,01,16,14.20
2014,07,16,01,17,14.10
2014,07,16,01,18,14.10
2014,07,16,01,19,14.10
2014,07,16,01,20,14.10
2014,07,16,01,21,14.10
2014,07,16,01,22,14.10
2014,07,16,01,23,14.10
2014,07,16,01,24,14.10
2014,07,16,01,25,14.10
2014,07,16,01,26,14.10
2014,07,16,01,27,14.10
2014,07,16,01,28,14.10
2014,07,16,01,29,14.10
2014,07,16,01,30,14.10
2014,07,16,01,31,14.10
2014,07,16,01,32,14.00
2014,07,16,01,33,14.00
2014,07,16,01,34,14.00
2014,07,16,01,35,14.00
2014,07,16,01,36,14.00
2014,07,16,01,37,14.00
2014,07,16,01,38,14.00
2014,07,16,01,39,14.00
2014,07,16,01,40,14.00
2014,07,16,01,41,14.00
2014,07,16,01,42,13.90
2014,07,16,01,43,13.90
2014,07,16,01,44,13.90
2014,07,16,01,45,13.90
2014,07,16,01,46,13.90
2014,07,16,01,47,13.90
2014,07,16,01,48,13.90
2014,07,16,01,49,13.90
2014,07,16,01,50,13.90
2014,07,16,01,51,13.90
2014,07,16,01,52,13.90
2014,07,16,01,53,13.80
2014,07,16,01,54,13.80
2014,07,16,01,55,13.80
2014,07,16,01,56,13.80
2014,07,16,01,57,13.80
2014,07,16,01,58,13.80
2014,07,16,01,59,13.80
2014,07,16,02,00,13.80
2014,07,16,02,01,13.80
2014,07,16,02,02,13.80
2014,07,16,02,03,13.80
2014,07,16,02,04,13.80
2014,07,16,02,05,13.80
2014,07,16,02,06,13.70
2014,07,16,02,07,13.70
2014,07,16,02,08,13.70
2014,07,16,02,09,13.70
2014,07,16,02,10,13.70
2014,07,16,02,11,13.70
2014,07,16,02,12,13.70
2014,07,16,02,13,13.70
2014,07,16,02,14,13.70
2014,07,16,02,15,13.70
2014,07,16,02,16,13.60
2014,07,16,02,17,13.60
2014,07,16,02,18,13.60
2014,07,16,02,19,13.60
2014,07,16,02,20,13.60
2014,07,16,02,21,13.60
2014,07,16,02,22,13.60
2014,07,16,02,23,13.60
2014,07,16,02,24,13.60
2014,07,16,02,25,13.50
2014,07,16,02,26,13.50
2014,07,16,02,27,13.50
2014,07,16,02,28,13.50
2014,07,16,02,29,13.50
2014,07,16,02,30,13.50
2014,07,16,02,31,13.50
2014,07,16,02,32,13.50
2014,07,16,02,33,13.50
2014,07,16,02,34,13.50
2014,07,16,02,35,13.50
2014,07,16,02,36,13.40
2014,07,16,02,37,13.40
2014,07,16,02,38,13.40
2014,07,16,02,39,13.40
2014,07,16,02,40,13.40
2014,07,16,02,41,13.40
2014,07,16,02,42,13.40
2014,07,16,02,43,13.40
2014,07,16,02,44,13.40
2014,07,16,02,45,13.40
2014,07,16,02,46,13.40
2014,07,16,02,47,13.40
2014,07,16,02,48,13.40
2014,07,16,02,49,13.40
2014,07,16,02,50,13.40
2014,07,16,02,51,13.40
2014,07,16,02,52,13.40
2014,07,16,02,53,13.40
2014,07,16,02,54,13.40
2014,07,16,02,55,13.40
2014,07,16,02,56,13.40
2014,07,16,02,57,13.40
2014,07,16,02,58,13.40
2014,07,16,02,59,13.40
2014,07,16,03,00,13.40
2014,07,16,03,01,13.40
2014,07,16,03,02,13.40
2014,07,16,03,03,13.40
2014,07,16,03,04,13.40
2014,07,16,03,05,13.40
2014,07,16,03,06,13.40
2014,07,16,03,07,13.40
2014,07,16,03,08,13.40
2014,07,16,03,09,13.40
2014,07,16,03,10,13.40
2014,07,16,03,11,13.40
2014,07,16,03,12,13.40
2014,07,16,03,13,13.40
2014,07,16,03,14,13.40
2014,07,16,03,15,13.40
2014,07,16,03,16,13.40
2014,07,16,03,17,13.40
2014,07,16,03,18,13.30
2014,07,16,03,19,13.30
2014,07,16,03,20,13.30
2014,07,16,03,21,13.30
2014,07,16,03,22,13.30
2014,07,16,03,23,13.30
2014,07,16,03,24,13.30
2014,07,16,03,25,13.30
2014,07,16,03,26,13.30
2014,07,16,03,27,13.30
2014,07,16,03,28,13.30
2014,07,16,03,29,13.30
2014,07,16,03,30,13.30
2014,07,16,03,31,13.30
2014,07,16,03,32,13.30
2014,07,16,03,33,13.30
2014,07,16,03,34,13.30
2014,07,16,03,35,13.30
2014,07,16,03,36,13.30
2014,07,16,03,37,13.20
2014,07,16,03,38,13.20
2014,07,16,03,39,13.20
2014,07,16,03,40,13.20
2014,07,16,03,41,13.20
2014,07,16,03,42,13.20
2014,07,16,03,43,13.20
2014,07,16,03,44,13.20
2014,07,16,03,45,13.20
2014,07,16,03,46,13.20
2014,07,16,03,47,13.20
2014,07,16,03,48,13.20
2014,07,16,03,49,13.20
2014,07,16,03,50,13.20
2014,07,16,03,51,13.20
2014,07,16,03,52,13.20
2014,07,16,03,53,13.20
2014,07,16,03,54,13.10
2014,07,16,03,55,13.10
2014,07,16,03,56,13.10
2014,07,16,03,57,13.10
2014,07,16,03,58,13.10
2014,07,16,03,59,13.10
2014,07,16,04,00,13.10
2014,07,16,04,01,13.10
2014,07,16,04,02,13.10
2014,07,16,04,03,13.10
2014,07,16,04,04,13.10
2014,07,16,04,05,13.10
2014,07,16,04,06,13.10
2014,07,16,04,07,13.10
2014,07,16,04,08,13.10
2014,07,16,04,09,13.10
2014,07,16,04,10,13.10
2014,07,16,04,11,13.10
2014,07,16,04,12,13.10
2014,07,16,04,13,13.10
2014,07,16,04,14,13.00
2014,07,16,04,15,13.00
2014,07,16,04,16,13.00
2014,07,16,04,17,13.00
2014,07,16,04,18,13.00
2014,07,16,04,19,13.00
2014,07,16,04,20,13.00
2014,07,16,04,21,13.00
2014,07,16,04,22,13.00
2014,07,16,04,23,13.00
2014,07,16,04,24,12.90
2014,07,16,04,25,12.90
2014,07,16,04,26,12.90
2014,07,16,04,27,12.90
2014,07,16,04,28,12.90
2014,07,16,04,29,12.90
2014,07,16,04,30,12.90
2014,07,16,04,31,12.90
2014,07,16,04,32,12.90
2014,07,16,04,33,12.90
2014,07,16,04,34,12.90
2014,07,16,04,35,12.90
2014,07,16,04,36,12.90
2014,07,16,04,37,12.90
2014,07,16,04,38,12.90
2014,07,16,04,39,12.90
2014,07,16,04,40,12.90
2014,07,16,04,41,12.90
2014,07,16,04,42,12.90
2014,07,16,04,43,12.90
2014,07,16,04,44,12.90
2014,07,16,04,45,12.90
2014,07,16,04,46,12.90
2014,07,16,04,47,12.90
2014,07,16,04,48,12.90
2014,07,16,04,49,12.90
2014,07,16,04,50,12.80
2014,07,16,04,51,12.80
2014,07,16,04,52,12.80
2014,07,16,04,53,12.80
2014,07,16,04,54,12.80
2014,07,16,04,55,12.80
2014,07,16,04,56,12.80
2014,07,16,04,57,12.80
2014,07,16,04,58,12.80
2014,07,16,04,59,12.80
2014,07,16,05,00,12.80
2014,07,16,05,01,12.80
2014,07,16,05,02,12.70
2014,07,16,05,03,12.70
2014,07,16,05,04,12.70
2014,07,16,05,05,12.70
2014,07,16,05,06,12.70
2014,07,16,05,07,12.70
2014,07,16,05,08,12.70
2014,07,16,05,09,12.70
2014,07,16,05,10,12.70
2014,07,16,05,11,12.70
2014,07,16,05,12,12.70
2014,07,16,05,13,12.70
2014,07,16,05,14,12.60
2014,07,16,05,15,12.60
2014,07,16,05,16,12.60
2014,07,16,05,17,12.60
2014,07,16,05,18,12.60
2014,07,16,05,19,12.60
2014,07,16,05,20,12.60
2014,07,16,05,21,12.60
2014,07,16,05,22,12.60
2014,07,16,05,23,12.60
2014,07,16,05,24,12.50
2014,07,16,05,25,12.50
2014,07,16,05,26,12.50
2014,07,16,05,27,12.50
2014,07,16,05,28,12.50
2014,07,16,05,29,12.50
2014,07,16,05,30,12.50
2014,07,16,05,31,12.50
2014,07,16,05,32,12.50
2014,07,16,05,33,12.40
2014,07,16,05,34,12.40
2014,07,16,05,35,12.40
2014,07,16,05,36,12.40
2014,07,16,05,37,12.40
2014,07,16,05,38,12.40
2014,07,16,05,39,12.40
2014,07,16,05,40,12.40
2014,07,16,05,41,12.40
2014,07,16,05,42,12.40
2014,07,16,05,43,12.40
2014,07,16,05,44,12.40
2014,07,16,05,45,12.40
2014,07,16,05,46,12.30
2014,07,16,05,47,12.30
2014,07,16,05,48,12.30
2014,07,16,05,49,12.30
2014,07,16,05,50,12.30
2014,07,16,05,51,12.30
2014,07,16,05,52,12.30
2014,07,16,05,53,12.30
2014,07,16,05,54,12.30
2014,07,16,05,55,12.30
2014,07,16,05,56,12.30
2014,07,16,05,57,12.30
2014,07,16,05,58,12.30
2014,07,16,05,59,12.30
2014,07,16,06,00,12.30
2014,07,16,06,01,12.30
2014,07,16,06,02,12.30
2014,07,16,06,03,12.30
2014,07,16,06,04,12.30
2014,07,16,06,05,12.30
2014,07,16,06,06,12.30
2014,07,16,06,07,12.30
2014,07,16,06,08,12.30
2014,07,16,06,09,12.30
2014,07,16,06,10,12.30
2014,07,16,06,11,12.30
2014,07,16,06,12,12.30
2014,07,16,06,13,12.30
2014,07,16,06,14,12.30
2014,07,16,06,15,12.30
2014,07,16,06,16,12.30
2014,07,16,06,17,12.30
2014,07,16,06,18,12.30
2014,07,16,06,19,12.30
2014,07,16,06,20,12.30
2014,07,16,06,21,12.30
2014,07,16,06,22,12.40
2014,07,16,06,23,12.30
2014,07,16,06,24,12.30
2014,07,16,06,25,12.40
2014,07,16,06,26,12.40
2014,07,16,06,27,12.40
2014,07,16,06,28,12.40
2014,07,16,06,29,12.40
2014,07,16,06,30,12.40
2014,07,16,06,31,12.40
2014,07,16,06,32,12.40
2014,07,16,06,33,12.40
2014,07,16,06,34,12.40
2014,07,16,06,35,12.50
2014,07,16,06,36,12.50
2014,07,16,06,37,12.50
2014,07,16,06,38,12.60
2014,07,16,06,39,12.60
2014,07,16,06,40,12.60
2014,07,16,06,41,12.60
2014,07,16,06,42,12.70
2014,07,16,06,43,12.70
2014,07,16,06,44,12.70
2014,07,16,06,45,12.70
2014,07,16,06,46,12.80
2014,07,16,06,47,12.80
2014,07,16,06,48,12.80
2014,07,16,06,49,12.80
2014,07,16,06,50,12.80
2014,07,16,06,51,12.80
2014,07,16,06,52,12.90
2014,07,16,06,53,12.90
2014,07,16,06,54,12.90
2014,07,16,06,55,12.90
2014,07,16,06,56,13.00
2014,07,16,06,57,13.00
2014,07,16,06,58,13.00
2014,07,16,06,59,13.10
2014,07,16,07,00,13.10
2014,07,16,07,01,13.10
2014,07,16,07,02,13.20
2014,07,16,07,03,13.20
2014,07,16,07,04,13.20
2014,07,16,07,05,13.30
2014,07,16,07,06,13.30
2014,07,16,07,07,13.30
2014,07,16,07,08,13.30
2014,07,16,07,09,13.40
2014,07,16,07,10,13.50
2014,07,16,07,11,13.60
2014,07,16,07,12,13.60
2014,07,16,07,13,13.70
2014,07,16,07,14,13.70
2014,07,16,07,15,13.80
2014,07,16,07,16,13.90
2014,07,16,07,17,13.90
2014,07,16,07,18,14.00
2014,07,16,07,19,14.10
2014,07,16,07,20,14.20
2014,07,16,07,21,14.20
2014,07,16,07,22,14.30
2014,07,16,07,23,14.30
2014,07,16,07,24,14.40
2014,07,16,07,25,14.50
2014,07,16,07,26,14.60
2014,07,16,07,27,14.70
2014,07,16,07,28,14.70
2014,07,16,07,29,14.80
2014,07,16,07,30,14.80
2014,07,16,07,31,14.90
2014,07,16,07,32,15.00
2014,07,16,07,33,15.10
2014,07,16,07,34,15.20
2014,07,16,07,35,15.20
2014,07,16,07,36,15.30
2014,07,16,07,37,15.30
2014,07,16,07,38,15.40
2014,07,16,07,39,15.40
2014,07,16,07,40,15.50
2014,07,16,07,41,15.50
2014,07,16,07,42,15.60
2014,07,16,07,43,15.70
2014,07,16,07,44,15.70
2014,07,16,07,45,15.80
2014,07,16,07,46,15.80
2014,07,16,07,47,15.90
2014,07,16,07,48,15.90
2014,07,16,07,49,16.00
2014,07,16,07,50,16.10
2014,07,16,07,51,16.10
2014,07,16,07,52,16.20
2014,07,16,07,53,16.20
2014,07,16,07,54,16.20
2014,07,16,07,55,16.30
2014,07,16,07,56,16.30
2014,07,16,07,57,16.40
2014,07,16,07,58,16.40
2014,07,16,07,59,16.50
2014,07,16,08,00,16.60
2014,07,16,08,01,16.70
2014,07,16,08,02,16.70
2014,07,16,08,03,16.80
2014,07,16,08,04,16.80
2014,07,16,08,05,16.90
2014,07,16,08,06,17.00
2014,07,16,08,07,17.00
2014,07,16,08,08,17.10
2014,07,16,08,09,17.20
2014,07,16,08,10,17.20
2014,07,16,08,11,17.30
2014,07,16,08,12,17.30
2014,07,16,08,13,17.40
2014,07,16,08,14,17.50
2014,07,16,08,15,17.60
2014,07,16,08,16,17.70
2014,07,16,08,17,17.70
2014,07,16,08,18,17.80
2014,07,16,08,19,17.90
2014,07,16,08,20,18.00
2014,07,16,08,21,18.10
2014,07,16,08,22,18.20
2014,07,16,08,23,18.30
2014,07,16,08,24,18.40
2014,07,16,08,25,18.50
2014,07,16,08,26,18.70
2014,07,16,08,27,18.80
2014,07,16,08,28,19.00
2014,07,16,08,29,19.10
2014,07,16,08,30,19.20
2014,07,16,08,31,19.30
2014,07,16,08,32,19.40
2014,07,16,08,33,19.50
2014,07,16,08,34,19.60
2014,07,16,08,35,19.60
2014,07,16,08,36,19.70
2014,07,16,08,37,19.80
2014,07,16,08,38,19.90
2014,07,16,08,39,20.00
2014,07,16,08,40,20.10
2014,07,16,08,41,20.10
2014,07,16,08,42,20.20
2014,07,16,08,43,20.20
2014,07,16,08,44,20.30
2014,07,16,08,45,20.30
2014,07,16,08,46,20.40
2014,07,16,08,47,20.50
2014,07,16,08,48,20.60
2014,07,16,08,49,20.60
2014,07,16,08,50,20.70
2014,07,16,08,51,20.70
2014,07,16,08,52,20.80
2014,07,16,08,53,20.80
2014,07,16,08,54,20.80
2014,07,16,08,55,20.90
2014,07,16,08,56,20.90
2014,07,16,08,57,21.00
2014,07,16,08,58,21.00
2014,07,16,08,59,21.10
2014,07,16,09,00,21.20
2014,07,16,09,01,21.20
2014,07,16,09,02,21.30
2014,07,16,09,03,21.30
2014,07,16,09,04,21.40
2014,07,16,09,05,21.50
2014,07,16,09,06,21.60
2014,07,16,09,07,21.60
2014,07,16,09,08,21.60
2014,07,16,09,09,21.60
2014,07,16,09,10,21.60
2014,07,16,09,11,21.60
2014,07,16,09,12,21.60
2014,07,16,09,13,21.60
2014,07,16,09,14,21.70
2014,07,16,09,15,21.70
2014,07,16,09,16,21.70
2014,07,16,09,17,21.70
2014,07,16,09,18,21.60
2014,07,16,09,19,21.60
2014,07,16,09,20,21.60
2014,07,16,09,21,21.50
2014,07,16,09,22,21.40
2014,07,16,09,23,21.40
2014,07,16,09,24,21.30
2014,07,16,09,25,21.30
2014,07,16,09,26,21.30
2014,07,16,09,27,21.30
2014,07,16,09,28,21.30
2014,07,16,09,29,21.30
2014,07,16,09,30,21.30
2014,07,16,09,31,21.30
2014,07,16,09,32,21.30
2014,07,16,09,33,21.30
2014,07,16,09,34,21.30
2014,07,16,09,35,21.30
2014,07,16,09,36,21.30
2014,07,16,09,37,21.40
2014,07,16,09,38,21.40
2014,07,16,09,39,21.40
2014,07,16,09,40,21.40
2014,07,16,09,41,21.40
2014,07,16,09,42,21.40
2014,07,16,09,43,21.40
2014,07,16,09,44,21.40
2014,07,16,09,45,21.40
2014,07,16,09,46,21.40
2014,07,16,09,47,21.40
2014,07,16,09,48,21.40
2014,07,16,09,49,21.40
2014,07,16,09,50,21.40
2014,07,16,09,51,21.50
2014,07,16,09,52,21.50
2014,07,16,09,53,21.50
2014,07,16,09,54,21.50
2014,07,16,09,55,21.60
2014,07,16,09,56,21.70
2014,07,16,09,57,21.70
2014,07,16,09,58,21.80
2014,07,16,09,59,21.90
2014,07,16,10,00,22.00
2014,07,16,10,01,22.10
2014,07,16,10,02,22.20
2014,07,16,10,03,22.30
2014,07,16,10,04,22.50
2014,07,16,10,05,22.60
2014,07,16,10,06,22.70
2014,07,16,10,07,22.70
2014,07,16,10,08,22.80
2014,07,16,10,09,22.80
2014,07,16,10,10,22.80
2014,07,16,10,11,22.90
2014,07,16,10,12,22.80
2014,07,16,10,13,22.80
2014,07,16,10,14,22.80
2014,07,16,10,15,22.80
2014,07,16,10,16,22.70
2014,07,16,10,17,22.70
2014,07,16,10,18,22.70
2014,07,16,10,19,22.60
2014,07,16,10,20,22.60
2014,07,16,10,21,22.50
2014,07,16,10,22,22.50
2014,07,16,10,23,22.50
2014,07,16,10,24,22.50
2014,07,16,10,25,22.60
2014,07,16,10,26,22.60
2014,07,16,10,27,22.50
2014,07,16,10,28,22.50
2014,07,16,10,29,22.50
2014,07,16,10,30,22.50
2014,07,16,10,31,22.50
2014,07,16,10,32,22.50
2014,07,16,10,33,22.60
2014,07,16,10,34,22.60
2014,07,16,10,35,22.50
2014,07,16,10,36,22.50
2014,07,16,10,37,22.50
2014,07,16,10,38,22.50
2014,07,16,10,39,22.40
2014,07,16,10,40,22.40
2014,07,16,10,41,22.40
2014,07,16,10,42,22.40
2014,07,16,10,43,22.50
2014,07,16,10,44,22.50
2014,07,16,10,45,22.60
2014,07,16,10,46,22.60
2014,07,16,10,47,22.70
2014,07,16,10,48,22.70
2014,07,16,10,49,22.80
2014,07,16,10,50,22.80
2014,07,16,10,51,22.80
2014,07,16,10,52,22.90
2014,07,16,10,53,22.90
2014,07,16,10,54,23.00
2014,07,16,10,55,23.10
2014,07,16,10,56,23.10
2014,07,16,10,57,23.20
2014,07,16,10,58,23.30
2014,07,16,10,59,23.30
2014,07,16,11,00,23.40
2014,07,16,11,01,23.50
2014,07,16,11,02,23.50
2014,07,16,11,03,23.60
2014,07,16,11,04,23.60
2014,07,16,11,05,23.70
2014,07,16,11,06,23.70
2014,07,16,11,07,23.80
2014,07,16,11,08,23.90
2014,07,16,11,09,23.90
2014,07,16,11,10,24.00
2014,07,16,11,11,24.00
2014,07,16,11,12,24.10
2014,07,16,11,13,24.00
2014,07,16,11,14,24.00
2014,07,16,11,15,24.10
2014,07,16,11,16,24.10
2014,07,16,11,17,24.10
2014,07,16,11,18,24.10
2014,07,16,11,19,24.10
2014,07,16,11,20,24.00
2014,07,16,11,21,24.00
2014,07,16,11,22,23.90
2014,07,16,11,23,23.80
2014,07,16,11,24,23.70
2014,07,16,11,25,23.70
2014,07,16,11,26,23.70
2014,07,16,11,27,23.60
2014,07,16,11,28,23.60
2014,07,16,11,29,23.70
2014,07,16,11,30,23.70
2014,07,16,11,31,23.80
2014,07,16,11,32,23.80
2014,07,16,11,33,23.80
2014,07,16,11,34,23.90
2014,07,16,11,35,23.90
2014,07,16,11,36,23.90
2014,07,16,11,37,23.80
2014,07,16,11,38,23.80
2014,07,16,11,39,23.80
2014,07,16,11,40,23.70
2014,07,16,11,41,23.70
2014,07,16,11,42,23.70
2014,07,16,11,43,23.80
2014,07,16,11,44,23.80
2014,07,16,11,45,23.80
2014,07,16,11,46,23.80
2014,07,16,11,47,23.80
2014,07,16,11,48,23.80
2014,07,16,11,49,23.70
2014,07,16,11,50,23.70
2014,07,16,11,51,23.70
2014,07,16,11,52,23.70
2014,07,16,11,53,23.70
2014,07,16,11,54,23.70
2014,07,16,11,55,23.70
2014,07,16,11,56,23.70
2014,07,16,11,57,23.80
2014,07,16,11,58,23.80
2014,07,16,11,59,23.80
2014,07,16,12,00,23.80
2014,07,16,12,01,23.90
2014,07,16,12,02,23.90
2014,07,16,12,03,24.00
2014,07,16,12,04,24.00
2014,07,16,12,05,24.00
2014,07,16,12,06,24.10
2014,07,16,12,07,24.10
2014,07,16,12,08,24.20
2014,07,16,12,09,24.20
2014,07,16,12,10,24.20
2014,07,16,12,11,24.30
2014,07,16,12,12,24.30
2014,07,16,12,13,24.40
2014,07,16,12,14,24.50
2014,07,16,12,15,24.50
2014,07,16,12,16,24.60
2014,07,16,12,17,24.60
2014,07,16,12,18,24.60
2014,07,16,12,19,24.70
2014,07,16,12,20,24.70
2014,07,16,12,21,24.80
2014,07,16,12,22,24.80
2014,07,16,12,23,24.80
2014,07,16,12,24,24.80
2014,07,16,12,25,24.80
2014,07,16,12,26,24.80
2014,07,16,12,27,24.80
2014,07,16,12,28,24.80
2014,07,16,12,29,24.80
2014,07,16,12,30,24.90
2014,07,16,12,31,24.90
2014,07,16,12,32,24.80
2014,07,16,12,33,24.80
2014,07,16,12,34,24.80
2014,07,16,12,35,24.80
2014,07,16,12,36,24.80
2014,07,16,12,37,24.80
2014,07,16,12,38,24.80
2014,07,16,12,39,24.80
2014,07,16,12,40,24.80
2014,07,16,12,41,24.90
2014,07,16,12,42,24.90
2014,07,16,12,43,24.90
2014,07,16,12,44,24.90
2014,07,16,12,45,24.90
2014,07,16,12,46,25.00
2014,07,16,12,47,25.00
2014,07,16,12,48,25.10
2014,07,16,12,49,25.10
2014,07,16,12,50,25.10
2014,07,16,12,51,25.20
2014,07,16,12,52,25.20
2014,07,16,12,53,25.30
2014,07,16,12,54,25.30
2014,07,16,12,55,25.30
2014,07,16,12,56,25.30
2014,07,16,12,57,25.30
2014,07,16,12,58,25.30
2014,07,16,12,59,25.30
2014,07,16,13,00,25.30
2014,07,16,13,01,25.30
2014,07,16,13,02,25.40
2014,07,16,13,03,25.40
2014,07,16,13,04,25.40
2014,07,16,13,05,25.40
2014,07,16,13,06,25.40
2014,07,16,13,07,25.40
2014,07,16,13,08,25.40
2014,07,16,13,09,25.40
2014,07,16,13,10,25.50
2014,07,16,13,11,25.50
2014,07,16,13,12,25.60
2014,07,16,13,13,25.60
2014,07,16,13,14,25.60
2014,07,16,13,15,25.60
2014,07,16,13,16,25.60
2014,07,16,13,17,25.60
2014,07,16,13,18,25.60
2014,07,16,13,19,25.70
2014,07,16,13,20,25.70
2014,07,16,13,21,25.70
2014,07,16,13,22,25.70
2014,07,16,13,23,25.70
2014,07,16,13,24,25.70
2014,07,16,13,25,25.70
2014,07,16,13,26,25.60
2014,07,16,13,27,25.60
2014,07,16,13,28,25.60
2014,07,16,13,29,25.60
2014,07,16,13,30,25.50
2014,07,16,13,31,25.50
2014,07,16,13,32,25.50
2014,07,16,13,33,25.40
2014,07,16,13,34,25.40
2014,07,16,13,35,25.50
2014,07,16,13,36,25.50
2014,07,16,13,37,25.50
2014,07,16,13,38,25.60
2014,07,16,13,39,25.60
2014,07,16,13,40,25.60
2014,07,16,13,41,25.70
2014,07,16,13,42,25.70
2014,07,16,13,43,25.70
2014,07,16,13,44,25.70
2014,07,16,13,45,25.70
2014,07,16,13,46,25.80
2014,07,16,13,47,25.80
2014,07,16,13,48,25.80
2014,07,16,13,49,25.80
2014,07,16,13,50,25.80
2014,07,16,13,51,25.80
2014,07,16,13,52,25.80
2014,07,16,13,53,25.90
2014,07,16,13,54,25.90
2014,07,16,13,55,26.00
2014,07,16,13,56,26.10
2014,07,16,13,57,26.10
2014,07,16,13,58,26.10
2014,07,16,13,59,26.10
2014,07,16,14,00,26.10
2014,07,16,14,01,26.10
2014,07,16,14,02,26.10
2014,07,16,14,03,26.10
2014,07,16,14,04,26.10
2014,07,16,14,05,26.10
2014,07,16,14,06,26.20
2014,07,16,14,07,26.20
2014,07,16,14,08,26.30
2014,07,16,14,09,26.30
2014,07,16,14,10,26.40
2014,07,16,14,11,26.40
2014,07,16,14,12,26.50
2014,07,16,14,13,26.60
2014,07,16,14,14,26.60
2014,07,16,14,15,26.70
2014,07,16,14,16,26.70
2014,07,16,14,17,26.70
2014,07,16,14,18,26.70
2014,07,16,14,19,26.70
2014,07,16,14,20,26.70
2014,07,16,14,21,26.70
2014,07,16,14,22,26.60
2014,07,16,14,23,26.50
2014,07,16,14,24,26.50
2014,07,16,14,25,26.40
2014,07,16,14,26,26.30
2014,07,16,14,27,26.30
2014,07,16,14,28,26.20
2014,07,16,14,29,26.20
2014,07,16,14,30,26.20
2014,07,16,14,31,26.20
2014,07,16,14,32,26.20
2014,07,16,14,33,26.20
2014,07,16,14,34,26.20
2014,07,16,14,35,26.20
2014,07,16,14,36,26.20
2014,07,16,14,37,26.30
2014,07,16,14,38,26.30
2014,07,16,14,39,26.30
2014,07,16,14,40,26.40
2014,07,16,14,41,26.40
2014,07,16,14,42,26.40
2014,07,16,14,43,26.50
2014,07,16,14,44,26.50
2014,07,16,14,45,26.40
2014,07,16,14,46,26.40
2014,07,16,14,47,26.40
2014,07,16,14,48,26.40
2014,07,16,14,49,26.40
2014,07,16,14,50,26.40
2014,07,16,14,51,26.40
2014,07,16,14,52,26.50
2014,07,16,14,53,26.50
2014,07,16,14,54,26.60
2014,07,16,14,55,26.60
2014,07,16,14,56,26.60
2014,07,16,14,57,26.60
2014,07,16,14,58,26.50
2014,07,16,14,59,26.50
2014,07,16,15,00,26.40
2014,07,16,15,01,26.50
2014,07,16,15,02,26.50
2014,07,16,15,03,26.50
2014,07,16,15,04,26.50
2014,07,16,15,05,26.50
2014,07,16,15,06,26.50
2014,07,16,15,07,26.50
2014,07,16,15,08,26.50
2014,07,16,15,09,26.60
2014,07,16,15,10,26.60
2014,07,16,15,11,26.60
2014,07,16,15,12,26.60
2014,07,16,15,13,26.60
2014,07,16,15,14,26.60
2014,07,16,15,15,26.60
2014,07,16,15,16,26.60
2014,07,16,15,17,26.60
2014,07,16,15,18,26.60
2014,07,16,15,19,26.70
2014,07,16,15,20,26.70
2014,07,16,15,21,26.70
2014,07,16,15,22,26.70
2014,07,16,15,23,26.70
2014,07,16,15,24,26.70
2014,07,16,15,25,26.70
2014,07,16,15,26,26.60
2014,07,16,15,27,26.60
2014,07,16,15,28,26.70
2014,07,16,15,29,26.70
2014,07,16,15,30,26.70
2014,07,16,15,31,26.80
2014,07,16,15,32,26.80
2014,07,16,15,33,26.80
2014,07,16,15,34,26.80
2014,07,16,15,35,26.80
2014,07,16,15,36,26.80
2014,07,16,15,37,26.80
2014,07,16,15,38,26.80
2014,07,16,15,39,26.90
2014,07,16,15,40,26.90
2014,07,16,15,41,26.90
2014,07,16,15,42,26.90
2014,07,16,15,43,27.00
2014,07,16,15,44,27.00
2014,07,16,15,45,27.00
2014,07,16,15,46,27.00
2014,07,16,15,47,27.10
2014,07,16,15,48,27.10
2014,07,16,15,49,27.20
2014,07,16,15,50,27.20
2014,07,16,15,51,27.20
2014,07,16,15,52,27.20
2014,07,16,15,53,27.20
2014,07,16,15,54,27.20
2014,07,16,15,55,27.20
2014,07,16,15,56,27.20
2014,07,16,15,57,27.20
2014,07,16,15,58,27.10
2014,07,16,15,59,27.10
2014,07,16,16,00,27.10
2014,07,16,16,01,27.00
2014,07,16,16,02,27.00
2014,07,16,16,03,27.00
2014,07,16,16,04,27.00
2014,07,16,16,05,27.10
2014,07,16,16,06,27.10
2014,07,16,16,07,27.20
2014,07,16,16,08,27.20
2014,07,16,16,09,27.20
2014,07,16,16,10,27.10
2014,07,16,16,11,27.00
2014,07,16,16,12,26.90
2014,07,16,16,13,26.80
2014,07,16,16,14,26.70
2014,07,16,16,15,26.70
2014,07,16,16,16,26.70
2014,07,16,16,17,26.70
2014,07,16,16,18,26.80
2014,07,16,16,19,26.80
2014,07,16,16,20,26.80
2014,07,16,16,21,26.90
2014,07,16,16,22,26.90
2014,07,16,16,23,26.90
2014,07,16,16,24,26.90
2014,07,16,16,25,26.90
2014,07,16,16,26,27.00
2014,07,16,16,27,27.00
2014,07,16,16,28,27.10
2014,07,16,16,29,27.10
2014,07,16,16,30,27.10
2014,07,16,16,31,27.10
2014,07,16,16,32,27.10
2014,07,16,16,33,27.10
2014,07,16,16,34,27.00
2014,07,16,16,35,27.00
2014,07,16,16,36,27.00
2014,07,16,16,37,27.00
2014,07,16,16,38,27.00
2014,07,16,16,39,27.00
2014,07,16,16,40,27.00
2014,07,16,16,41,27.00
2014,07,16,16,42,27.10
2014,07,16,16,43,27.10
2014,07,16,16,44,27.20
2014,07,16,16,45,27.20
2014,07,16,16,46,27.20
2014,07,16,16,47,27.20
2014,07,16,16,48,27.30
2014,07,16,16,49,27.30
2014,07,16,16,50,27.30
2014,07,16,16,51,27.40
2014,07,16,16,52,27.40
2014,07,16,16,53,27.40
2014,07,16,16,54,27.50
2014,07,16,16,55,27.50
2014,07,16,16,56,27.50
2014,07,16,16,57,27.50
2014,07,16,16,58,27.50
2014,07,16,16,59,27.40
2014,07,16,17,00,27.40
2014,07,16,17,01,27.30
2014,07,16,17,02,27.20
2014,07,16,17,03,27.10
2014,07,16,17,04,27.00
2014,07,16,17,05,26.90
2014,07,16,17,06,26.80
2014,07,16,17,07,26.80
2014,07,16,17,08,26.80
2014,07,16,17,09,26.90
2014,07,16,17,10,26.90
2014,07,16,17,11,26.90
2014,07,16,17,12,26.90
2014,07,16,17,13,26.90
2014,07,16,17,14,26.90
2014,07,16,17,15,26.90
2014,07,16,17,16,26.90
2014,07,16,17,17,26.90
2014,07,16,17,18,26.90
2014,07,16,17,19,26.80